M I D A S
Marine Information and Data Acquisition System
Tripno 337 of the Zeeleeuw from 2002-09-18 06:45:45 to 2002-09-18 13:57:39
Back to CruiseResearch ActivitiesStationsMapUnderway DataData graphs

EquipmentUnitsComment
TimeDGPSUTC
LatitudeDGPSDM.mWGS84
LongitudeDGPSDM.mWGS84
TemperatureSBE03/SBE38deg celciusITS90
ConductivitySBE21S/mITS90
SalinitySBE21 Practical Salinity Units
ChlorophylAChelsea fluorimeterg/lCalibrated in Aceton
Missing or incorrect values are displayed as -999
Sea surface data collected by the RV Zeeleeuw from 2002-09-18 06:45:45 to 2002-09-18 13:57:39
Time Latitude Longitude Temperature Conductivity Salinity ChlorophylA
2002-09-18 06:46:50 51°13.794 2°55.641 31.01236 0.070796 0.357556  
2002-09-18 06:47:50 51°13.838 2°55.611 30.439569 0.070796 0.357571  
2002-09-18 06:48:49 51°13.909 2°55.565 31.619171 0.070796 0.357577  
2002-09-18 06:49:50 51°14.014 2°55.505 31.078 0.070796 0.357597  
2002-09-18 06:50:50 51°14.123 2°55.431 31.650565 0.070796 0.357608  
2002-09-18 06:51:50 51°14.223 2°55.319 30.687856 0.070796 0.357633  
2002-09-18 06:52:50 51°14.306 2°55.171 30.151742 0.070796 0.357649  
2002-09-18 06:53:50 51°14.394 2°54.973 30.308075 0.070796 0.35768  
2002-09-18 06:54:50 51°14.476 2°54.713 30.276194 0.070796 0.357711  
2002-09-18 06:55:50 51°14.619 2°54.515 29.904201 0.070796 0.357752  
2002-09-18 06:56:49 51°14.811 2°54.458 30.000908 0.070796 0.357788  
2002-09-18 06:57:50 51°15.009 2°54.391 29.915541 0.070796 0.35783  
2002-09-18 06:58:50 51°15.201 2°54.4 31.24536 0.070796 0.35785  
2002-09-18 06:59:49 51°15.377 2°54.498 29.81487 0.070796 0.357887  
2002-09-18 07:00:49 51°15.53 2°54.674 30.541693 0.070693 0.357392  
2002-09-18 07:01:50 51°15.653 2°54.912 30.775923 0.070693 0.357454  
2002-09-18 07:02:53 51°15.788 2°55.187 31.155123 0.070693 0.357506  
2002-09-18 07:03:53 51°15.916 2°55.461 30.013398 0.070693 0.357552  
2002-09-18 07:04:54 51°16.042 2°55.749 30.193741 0.070693 0.357619  
2002-09-18 07:05:54 51°16.161 2°56.039 30.31194 0.070693 0.357687  
2002-09-18 07:06:53 51°16.28 2°56.325 31.181149 0.070693 0.357764  
2002-09-18 07:07:53 51°16.4 2°56.618 29.604577 0.070693 0.357842  
2002-09-18 07:08:54 51°16.519 2°56.916 30.220379 0.070589 0.357388  
2002-09-18 07:09:53 51°16.626 2°57.21 30.76768 0.070589 0.357471  
2002-09-18 07:10:54 51°16.739 2°57.515 30.713728 0.070589 0.357554  
2002-09-18 07:11:53 51°16.846 2°57.813 29.799942 0.070589 0.357637  
2002-09-18 07:12:53 51°16.954 2°58.116 30.873969 0.070589 0.357725  
2002-09-18 07:13:54 51°17.065 2°58.422 30.24845 0.070589 0.357803  
2002-09-18 07:14:53 51°17.177 2°58.71 32.359083 0.070589 0.357896  
2002-09-18 07:15:54 51°17.289 2°59.01 31.241611 0.070485 0.357457  
2002-09-18 07:16:53 51°17.398 2°59.302 31.389213 0.070485 0.35753  
2002-09-18 07:17:53 51°17.507 2°59.603 31.261326 0.070485 0.357613  
2002-09-18 07:18:53 51°17.622 2°59.894 30.606059 0.070485 0.357717  
2002-09-18 07:19:53 51°17.737 3°0.183 30.98652 0.070485 0.3578  
2002-09-18 07:20:54 51°17.852 3°0.478 31.642519 0.070381 0.35735  
2002-09-18 07:21:54 51°17.967 3°0.766 30.799809 0.070381 0.357439  
2002-09-18 07:22:53 51°18.076 3°1.049 30.118386 0.070381 0.357532  
2002-09-18 07:23:53 51°18.189 3°1.337 31.238938 0.070381 0.357616  
2002-09-18 07:24:53 51°18.303 3°1.622 30.022323 0.070381 0.357709  
2002-09-18 07:25:54 51°18.416 3°1.914 31.062831 0.070381 0.357798  
2002-09-18 07:26:53 51°18.529 3°2.194 30.865562 0.070277 0.357337  
2002-09-18 07:27:53 51°18.642 3°2.477 30.388262 0.070277 0.35741  
2002-09-18 07:28:53 51°18.761 3°2.756 31.113129 0.070277 0.357493  
2002-09-18 07:29:53 51°18.872 3°3.043 31.089097 0.070277 0.357587  
2002-09-18 07:30:54 51°18.984 3°3.338 30.725926 0.070277 0.357692  
2002-09-18 07:31:54 51°19.099 3°3.623 30.30572 0.070277 0.357765  
2002-09-18 07:32:53 51°19.214 3°3.901 30.509594 0.070173 0.357308  
2002-09-18 07:33:53 51°19.328 3°4.189 30.640391 0.070173 0.357402  
2002-09-18 07:34:53 51°19.443 3°4.474 31.07313 0.070173 0.357507  
2002-09-18 07:35:53 51°19.558 3°4.761 30.166742 0.070173 0.357606  
2002-09-18 07:36:53 51°19.688 3°5.032 30.00299 0.070173 0.35771  
2002-09-18 07:37:53 51°19.824 3°5.296 30.351358 0.070069 0.357279  
2002-09-18 07:38:53 51°19.966 3°5.552 30.01428 0.070069 0.357384  
2002-09-18 07:39:53 51°20.11 3°5.805 30.336113 0.070069 0.357484  
2002-09-18 07:40:53 51°20.257 3°6.051 30.149065 0.070069 0.357599  
2002-09-18 07:41:53 51°20.423 3°6.265 30.903753 0.070069 0.357709  
2002-09-18 07:42:53 51°20.59 3°6.474 30.47878 0.069965 0.357262  
2002-09-18 07:43:53 51°20.751 3°6.695 30.635387 0.069965 0.357393  
2002-09-18 07:44:53 51°20.919 3°6.903 30.836637 0.069965 0.357503  
2002-09-18 07:45:53 51°21.081 3°7.128 30.134273 0.069965 0.357618  
2002-09-18 07:46:53 51°21.253 3°7.344 31.172637 0.069861 0.357181  
2002-09-18 07:47:53 51°21.426 3°7.569 30.522106 0.069861 0.357286  
2002-09-18 07:48:53 51°21.591 3°7.81 31.359931 0.069861 0.357401  
2002-09-18 07:49:53 51°21.758 3°8.051 31.087706 0.069861 0.357512  
2002-09-18 07:50:53 51°21.919 3°8.302 22.403432 0.069861 0.357628  
2002-09-18 07:51:54 51°22.078 3°8.564 22.224988 0.069757 0.357184  
2002-09-18 07:52:53 51°22.233 3°8.818 22.360702 0.069757 0.3573  
2002-09-18 07:53:53 51°22.391 3°9.077 22.467752 0.069757 0.3574  
2002-09-18 07:54:54 51°22.494 3°9.257 22.249337 0.069757 0.357495  
2002-09-18 07:55:53 51°22.551 3°9.35 22.547866 0.069757 0.357584  
2002-09-18 07:56:58 51°22.608 3°9.417 22.304786 0.069653 0.35713  
2002-09-18 07:57:58 51°22.655 3°9.465 22.541463 0.069653 0.35723  
2002-09-18 07:58:58 51°22.687 3°9.497 22.395921 0.069653 0.357315  
2002-09-18 07:59:59 51°22.71 3°9.518 22.376083 0.069653 0.357399  
2002-09-18 08:00:58 51°22.724 3°9.528 22.329539 0.069653 0.357494  
2002-09-18 08:01:58 51°22.735 3°9.533 22.503621 0.069653 0.357584  
2002-09-18 08:02:58 51°22.747 3°9.531 22.585529 0.069549 0.357113  
2002-09-18 08:03:58 51°22.755 3°9.517 22.475568 0.069549 0.357182  
2002-09-18 08:04:58 51°22.761 3°9.495 22.494206 0.069549 0.357256  
2002-09-18 08:05:58 51°22.76 3°9.467 22.482055 0.069549 0.357319  
2002-09-18 08:06:57 51°22.754 3°9.438 22.436713 0.069549 0.357388  
2002-09-18 08:07:58 51°22.744 3°9.411 22.424943 0.069549 0.357446  
2002-09-18 08:09:00 51°22.734 3°9.393 22.605855 0.069445 0.356959  
2002-09-18 08:10:00 51°22.725 3°9.382 22.629295 0.069445 0.357006  
2002-09-18 08:11:00 51°22.712 3°9.365 22.492487 0.069445 0.357054  
2002-09-18 08:12:05 51°22.69 3°9.351 22.643877 0.069445 0.357112  
2002-09-18 08:13:04 51°22.67 3°9.346 22.792303 0.069445 0.35717  
2002-09-18 08:14:05 51°22.65 3°9.35 22.590757 0.069445 0.357234  
2002-09-18 08:15:05 51°22.634 3°9.36 22.646178 0.069445 0.357292  
2002-09-18 08:16:05 51°22.621 3°9.377 22.73244 0.069341 0.35681  
2002-09-18 08:17:04 51°22.613 3°9.396 22.593762 0.069341 0.356857  
2002-09-18 08:18:04 51°22.61 3°9.417 22.880528 0.069341 0.356921  
2002-09-18 08:19:05 51°22.613 3°9.435 22.804441 0.069341 0.356974  
2002-09-18 08:20:04 51°22.621 3°9.446 22.696374 0.069341 0.357042  
2002-09-18 08:21:10 51°22.635 3°9.449 22.974117 0.069341 0.357106  
2002-09-18 08:22:10 51°22.65 3°9.452 22.869025 0.069341 0.35717  
2002-09-18 08:23:10 51°22.666 3°9.46 22.795844 0.069341 0.357233  
2002-09-18 08:24:10 51°22.678 3°9.477 23.110747 0.069237 0.35674  
2002-09-18 08:25:10 51°22.682 3°9.496 22.8527 0.069237 0.356782  
2002-09-18 08:26:10 51°22.683 3°9.512 22.965035 0.069237 0.356846  
2002-09-18 08:27:10 51°22.683 3°9.531 23.048396 0.069237 0.356909  
2002-09-18 08:28:10 51°22.683 3°9.558 22.984982 0.069237 0.356973  
2002-09-18 08:29:10 51°22.677 3°9.586 23.032111 0.069237 0.357037  
2002-09-18 08:30:10 51°22.665 3°9.617 23.081574 0.069237 0.357095  
2002-09-18 08:31:10 51°22.646 3°9.643 23.130112 0.069237 0.357164  
2002-09-18 08:32:10 51°22.622 3°9.661 23.084945 0.069133 0.35667  
2002-09-18 08:33:10 51°22.596 3°9.665 22.946092 0.069133 0.356728  
2002-09-18 08:34:10 51°22.569 3°9.656 23.000618 0.069133 0.356792  
2002-09-18 08:35:09 51°22.547 3°9.635 23.338031 0.069133 0.356845  
2002-09-18 08:36:09 51°22.529 3°9.595 23.200633 0.069133 0.356898  
2002-09-18 08:37:10 51°22.567 3°9.473 23.352046 0.069133 0.356967  
2002-09-18 08:38:10 51°22.698 3°9.232 23.231343 0.069133 0.357026  
2002-09-18 08:39:10 51°22.858 3°8.976 23.408156 0.069133 0.357079  
2002-09-18 08:40:10 51°23.023 3°8.73 23.526986 0.069029 0.356584  
2002-09-18 08:41:10 51°23.186 3°8.483 23.420152 0.069029 0.356648  
2002-09-18 08:42:15 51°23.364 3°8.216 23.475092 0.069029 0.356717  
2002-09-18 08:43:14 51°23.528 3°7.975 23.654962 0.069029 0.356797  
2002-09-18 08:44:14 51°23.692 3°7.721 23.390332 0.069029 0.356866  
2002-09-18 08:45:14 51°23.865 3°7.488 23.346255 0.069029 0.356935  
2002-09-18 08:46:15 51°24.042 3°7.268 23.619085 0.069029 0.357026  
2002-09-18 08:47:14 51°24.144 3°7.133 23.448186 0.069029 0.357095  
2002-09-18 08:48:14 51°24.204 3°7.057 23.502565 0.068925 0.356615  
2002-09-18 08:49:21 51°24.219 3°7.016 23.610623 0.068925 0.356695  
2002-09-18 08:50:21 51°24.225 3°6.996 23.469927 0.068925 0.356764  
2002-09-18 08:51:21 51°24.231 3°6.987 23.391567 0.068925 0.356818  
2002-09-18 08:52:21 51°24.238 3°6.985 23.569336 0.068925 0.356876  
2002-09-18 08:53:21 51°24.246 3°6.993 23.431066 0.068925 0.35693  
2002-09-18 08:54:21 51°24.252 3°7.007 23.543929 0.068925 0.356983  
2002-09-18 08:55:21 51°24.259 3°7.022 23.723013 0.068821 0.356476  
2002-09-18 08:56:21 51°24.266 3°7.034 23.490198 0.068821 0.356519  
2002-09-18 08:57:21 51°24.275 3°7.04 23.700849 0.068821 0.356578  
2002-09-18 08:58:21 51°24.281 3°7.039 23.688208 0.068821 0.35661  
2002-09-18 08:59:26 51°24.284 3°7.032 23.552784 0.068821 0.356668  
2002-09-18 09:00:26 51°24.281 3°7.021 23.604814 0.068821 0.356706  
2002-09-18 09:01:26 51°24.279 3°7.004 23.780525 0.068821 0.356754  
2002-09-18 09:02:26 51°24.28 3°6.988 23.735648 0.068821 0.356797  
2002-09-18 09:03:26 51°24.287 3°6.978 23.786128 0.068821 0.356839  
2002-09-18 09:04:34 51°24.296 3°6.973 23.776956 0.068717 0.356332  
2002-09-18 09:05:34 51°24.301 3°6.975 23.764366 0.068717 0.356369  
2002-09-18 09:06:34 51°24.306 3°6.982 23.939384 0.068717 0.356423  
2002-09-18 09:07:34 51°24.311 3°6.992 23.707111 0.068717 0.356476  
2002-09-18 09:08:33 51°24.313 3°7.004 23.943634 0.068717 0.356519  
2002-09-18 09:09:34 51°24.313 3°7.019 23.962203 0.068717 0.356567  
2002-09-18 09:10:34 51°24.312 3°7.033 23.823609 0.068717 0.356615  
2002-09-18 09:11:34 51°24.312 3°7.048 23.903418 0.068717 0.356674  
2002-09-18 09:12:34 51°24.311 3°7.063 23.920044 0.068717 0.356717  
2002-09-18 09:13:34 51°24.309 3°7.08 23.966146 0.068717 0.356749  
2002-09-18 09:14:33 51°24.306 3°7.096 23.954661 0.068717 0.356797  
2002-09-18 09:15:38 51°24.301 3°7.114 24.157325 0.068717 0.35684  
2002-09-18 09:16:38 51°24.297 3°7.131 24.049545 0.068717 0.356888  
2002-09-18 09:17:37 51°24.293 3°7.146 24.031458 0.068613 0.356358  
2002-09-18 09:18:38 51°24.289 3°7.162 24.079935 0.068613 0.356401  
2002-09-18 09:19:38 51°24.284 3°7.18 24.001813 0.068613 0.356433  
2002-09-18 09:20:38 51°24.279 3°7.197 24.141441 0.068613 0.356476  
2002-09-18 09:21:38 51°24.275 3°7.214 23.998331 0.068613 0.356498  
2002-09-18 09:22:37 51°24.271 3°7.233 24.081311 0.068613 0.35653  
2002-09-18 09:23:37 51°24.273 3°7.255 23.999632 0.068613 0.356573  
2002-09-18 09:24:38 51°24.281 3°7.288 24.264716 0.068613 0.356599  
2002-09-18 09:25:38 51°24.29 3°7.331 23.996226 0.068613 0.356626  
2002-09-18 09:26:38 51°24.295 3°7.381 24.204268 0.068613 0.356664  
2002-09-18 09:27:37 51°24.299 3°7.437 24.338824 0.068613 0.356701  
2002-09-18 09:28:38 51°24.328 3°7.503 24.350324 0.068613 0.35675  
2002-09-18 09:29:38 51°24.393 3°7.545 24.238484 0.068613 0.356792  
2002-09-18 09:30:37 51°24.479 3°7.556 24.251868 0.068613 0.356857  
2002-09-18 09:31:37 51°24.575 3°7.565 24.204268 0.068613 0.356911  
2002-09-18 09:32:38 51°24.676 3°7.576 24.216018 0.068613 0.356959  
2002-09-18 09:33:38 51°24.777 3°7.593 24.28808 0.068509 0.35645  
2002-09-18 09:34:38 51°24.877 3°7.608 24.271806 0.068509 0.356493  
2002-09-18 09:35:38 51°24.976 3°7.618 24.346059 0.068509 0.35653  
2002-09-18 09:36:38 51°25.075 3°7.632 24.419362 0.068509 0.356573  
2002-09-18 09:37:38 51°25.174 3°7.649 24.433778 0.068509 0.356616  
2002-09-18 09:38:38 51°25.273 3°7.663 24.510792 0.068509 0.356659  
2002-09-18 09:39:37 51°25.371 3°7.674 24.301074 0.068509 0.356708  
2002-09-18 09:40:38 51°25.473 3°7.686 24.568214 0.068509 0.356751  
2002-09-18 09:41:38 51°25.571 3°7.701 24.266431 0.068509 0.35681  
2002-09-18 09:42:38 51°25.671 3°7.715 24.306599 0.068509 0.356858  
2002-09-18 09:43:38 51°25.772 3°7.728 24.447354 0.068509 0.356917  
2002-09-18 09:44:38 51°25.873 3°7.74 24.235204 0.068509 0.356977  
2002-09-18 09:45:38 51°25.976 3°7.752 24.559444 0.068509 0.35703  
2002-09-18 09:46:38 51°26.079 3°7.763 24.382111 0.068405 0.356531  
2002-09-18 09:47:37 51°26.179 3°7.775 24.489855 0.068405 0.356596  
2002-09-18 09:48:38 51°26.283 3°7.788 24.345374 0.068405 0.356644  
2002-09-18 09:49:37 51°26.382 3°7.829 24.515047 0.068405 0.356703  
2002-09-18 09:50:37 51°26.478 3°7.879 24.46587 0.068405 0.356757  
2002-09-18 09:51:38 51°26.574 3°7.937 24.573908 0.068405 0.356838  
2002-09-18 09:52:38 51°26.67 3°7.991 24.458457 0.068405 0.356903  
2002-09-18 09:53:38 51°26.766 3°8.04 24.660594 0.068405 0.356973  
2002-09-18 09:54:38 51°26.858 3°8.097 24.518162 0.068301 0.356478  
2002-09-18 09:55:38 51°26.948 3°8.179 24.336349 0.068301 0.356559  
2002-09-18 09:56:37 51°27.041 3°8.262 24.533621 0.068301 0.356624  
2002-09-18 09:57:38 51°27.138 3°8.344 24.357749 0.068301 0.356683  
2002-09-18 09:58:37 51°27.232 3°8.42 24.621456 0.068301 0.356764  
2002-09-18 09:59:37 51°27.327 3°8.499 24.816218 0.068301 0.356834  
2002-09-18 10:00:38 51°27.425 3°8.58 24.702629 0.068301 0.356905  
2002-09-18 10:01:37 51°27.519 3°8.658 24.586471 0.068301 0.356975  
2002-09-18 10:02:38 51°27.616 3°8.736 24.692018 0.068197 0.356491  
2002-09-18 10:03:38 51°27.696 3°8.802 24.764519 0.068197 0.35655  
2002-09-18 10:04:38 51°27.768 3°8.865 24.744526 0.068197 0.356626  
2002-09-18 10:05:38 51°27.835 3°8.928 24.599564 0.068197 0.356696  
2002-09-18 10:06:38 51°27.903 3°8.993 24.823179 0.068197 0.356761  
2002-09-18 10:07:37 51°27.97 3°9.061 24.555685 0.068197 0.35682  
2002-09-18 10:08:38 51°28.037 3°9.134 24.751002 0.068197 0.356902  
2002-09-18 10:09:38 51°28.102 3°9.208 24.670944 0.068197 0.356977  
2002-09-18 10:10:38 51°28.152 3°9.25 24.711912 0.068093 0.356471  
2002-09-18 10:11:38 51°28.185 3°9.24 24.781971 0.068093 0.35653  
2002-09-18 10:12:38 51°28.193 3°9.209 24.729225 0.068093 0.356573  
2002-09-18 10:13:38 51°28.185 3°9.187 24.645578 0.068093 0.356628  
2002-09-18 10:14:38 51°28.172 3°9.17 24.597059 0.068093 0.356698  
2002-09-18 10:15:38 51°28.161 3°9.152 24.885988 0.068093 0.356752  
2002-09-18 10:16:38 51°28.154 3°9.132 24.864478 0.068093 0.35679  
2002-09-18 10:17:38 51°28.152 3°9.113 24.69217 0.068093 0.356839  
2002-09-18 10:18:38 51°28.155 3°9.098 24.635832 0.068093 0.356866  
2002-09-18 10:19:38 51°28.161 3°9.089 24.675948 0.067989 0.356342  
2002-09-18 10:20:38 51°28.168 3°9.085 24.716989 0.067989 0.356386  
2002-09-18 10:21:37 51°28.177 3°9.088 24.818185 0.067989 0.356402  
2002-09-18 10:22:38 51°28.185 3°9.096 24.64171 0.067989 0.356445  
2002-09-18 10:23:38 51°28.192 3°9.109 24.712935 0.067989 0.356473  
2002-09-18 10:24:38 51°28.198 3°9.123 24.751721 0.067989 0.356516  
2002-09-18 10:25:38 51°28.202 3°9.139 24.759635 0.067989 0.356559  
2002-09-18 10:26:38 51°28.205 3°9.156 24.799683 0.067989 0.356586  
2002-09-18 10:27:38 51°28.216 3°9.155 24.901143 0.067989 0.356635  
2002-09-18 10:28:38 51°28.223 3°9.142 24.847273 0.067989 0.356657  
2002-09-18 10:29:38 51°28.221 3°9.133 24.795558 0.067989 0.35669  
2002-09-18 10:30:38 51°28.209 3°9.13 24.928497 0.067989 0.356733  
2002-09-18 10:31:38 51°28.192 3°9.132 24.906055 0.067989 0.356755  
2002-09-18 10:32:37 51°28.175 3°9.137 24.821628 0.067989 0.356804  
2002-09-18 10:33:37 51°28.156 3°9.145 24.830593 0.067989 0.35682  
2002-09-18 10:34:38 51°28.139 3°9.156 24.777655 0.067989 0.356847  
2002-09-18 10:35:38 51°28.128 3°9.17 25.034381 0.067989 0.356896  
2002-09-18 10:36:38 51°28.109 3°9.179 24.764595 0.067885 0.356377  
2002-09-18 10:37:38 51°28.095 3°9.16 24.927893 0.067885 0.356426  
2002-09-18 10:38:38 51°28.097 3°9.136 24.875744 0.067885 0.356464  
2002-09-18 10:39:38 51°28.113 3°9.119 24.884362 0.067885 0.356502  
2002-09-18 10:40:38 51°28.134 3°9.109 25.044791 0.067885 0.35654  
2002-09-18 10:41:38 51°28.161 3°9.102 24.896457 0.067885 0.356578  
2002-09-18 10:42:38 51°28.19 3°9.102 24.870943 0.067885 0.356605  
2002-09-18 10:43:38 51°28.221 3°9.108 24.877558 0.067885 0.356643  
2002-09-18 10:44:38 51°28.251 3°9.121 25.010424 0.067885 0.356687  
2002-09-18 10:45:38 51°28.284 3°9.137 25.017065 0.067885 0.356736  
2002-09-18 10:46:38 51°28.315 3°9.081 25.086228 0.067885 0.356769  
2002-09-18 10:47:38 51°28.313 3°8.877 25.128772 0.067885 0.356758  
2002-09-18 10:48:38 51°28.317 3°8.633 25.013405 0.067885 0.356796  
2002-09-18 10:49:38 51°28.327 3°8.385 25.052975 0.067885 0.356828  
2002-09-18 10:50:37 51°28.339 3°8.141 25.025817 0.067885 0.356845  
2002-09-18 10:51:38 51°28.349 3°7.889 25.005632 0.067885 0.356883  
2002-09-18 10:52:38 51°28.36 3°7.64 25.227331 0.067781 0.356347  
2002-09-18 10:53:37 51°28.371 3°7.394 25.051014 0.067781 0.35639  
2002-09-18 10:54:38 51°28.383 3°7.139 25.306481 0.067781 0.356412  
2002-09-18 10:55:38 51°28.395 3°6.888 25.003934 0.067781 0.356456  
2002-09-18 10:56:37 51°28.405 3°6.643 25.139282 0.067781 0.356488  
2002-09-18 10:57:38 51°28.418 3°6.39 25.146175 0.067781 0.356532  
2002-09-18 10:58:38 51°28.431 3°6.141 24.996612 0.067781 0.356565  
2002-09-18 10:59:38 51°28.444 3°5.892 25.100287 0.067781 0.356608  
2002-09-18 11:00:38 51°28.458 3°5.644 25.050561 0.067781 0.356641  
2002-09-18 11:01:37 51°28.471 3°5.401 25.088867 0.067781 0.356685  
2002-09-18 11:02:37 51°28.485 3°5.156 25.035399 0.067781 0.356717  
2002-09-18 11:03:37 51°28.498 3°4.91 25.445885 0.067781 0.35675  
2002-09-18 11:04:38 51°28.511 3°4.66 25.268928 0.067781 0.356794  
2002-09-18 11:05:38 51°28.523 3°4.446 24.999745 0.067781 0.356832  
2002-09-18 11:06:38 51°28.554 3°4.273 25.224584 0.067678 0.356295  
2002-09-18 11:07:38 51°28.623 3°4.144 25.141956 0.067781 0.356908  
2002-09-18 11:08:37 51°28.678 3°4.05 25.178106 0.067781 0.356941  
2002-09-18 11:09:38 51°28.709 3°3.96 25.214501 0.067678 0.356409  
2002-09-18 11:10:38 51°28.718 3°3.874 25.346268 0.067678 0.356431  
2002-09-18 11:11:38 51°28.721 3°3.802 25.04562 0.067678 0.356464  
2002-09-18 11:12:38 51°28.711 3°3.771 25.208254 0.067678 0.356502  
2002-09-18 11:13:38 51°28.697 3°3.762 25.12444 0.067678 0.35653  
2002-09-18 11:14:38 51°28.695 3°3.771 24.978872 0.067678 0.35654  
2002-09-18 11:15:38 51°28.694 3°3.785 25.202534 0.067678 0.356568  
2002-09-18 11:16:38 51°28.693 3°3.803 25.210813 0.067678 0.356584  
2002-09-18 11:17:38 51°28.689 3°3.822 25.218414 0.067678 0.356617  
2002-09-18 11:18:38 51°28.686 3°3.837 25.381829 0.067678 0.356633  
2002-09-18 11:19:38 51°28.685 3°3.841 25.326546 0.067678 0.356677  
2002-09-18 11:20:38 51°28.692 3°3.835 25.178896 0.067678 0.356699  
2002-09-18 11:21:38 51°28.703 3°3.825 25.186275 0.067678 0.356726  
2002-09-18 11:22:38 51°28.715 3°3.812 25.288402 0.067678 0.356754  
2002-09-18 11:23:38 51°28.722 3°3.796 25.26419 0.067678 0.356775  
2002-09-18 11:24:38 51°28.723 3°3.782 25.301858 0.067678 0.356803  
2002-09-18 11:25:38 51°28.717 3°3.776 25.277237 0.067678 0.35683  
2002-09-18 11:26:38 51°28.713 3°3.768 25.285508 0.067574 0.356281  
2002-09-18 11:27:38 51°28.71 3°3.756 25.445247 0.067678 0.356863  
2002-09-18 11:28:38 51°28.706 3°3.745 25.206749 0.067574 0.35632  
2002-09-18 11:29:38 51°28.699 3°3.738 25.305316 0.067574 0.356336  
2002-09-18 11:30:38 51°28.697 3°3.726 25.342436 0.067574 0.356358  
2002-09-18 11:31:38 51°28.705 3°3.712 25.287387 0.067574 0.35638  
2002-09-18 11:32:38 51°28.716 3°3.702 25.416471 0.067574 0.356396  
2002-09-18 11:33:39 51°28.721 3°3.699 25.299829 0.067574 0.356424  
2002-09-18 11:34:38 51°28.721 3°3.708 25.367974 0.067574 0.356434  
2002-09-18 11:35:38 51°28.719 3°3.726 25.342286 0.067574 0.356451  
2002-09-18 11:36:38 51°28.718 3°3.736 25.501414 0.067574 0.356473  
2002-09-18 11:37:38 51°28.721 3°3.735 25.323954 0.067574 0.356484  
2002-09-18 11:38:38 51°28.724 3°3.733 25.328274 0.067574 0.356511  
2002-09-18 11:39:38 51°28.726 3°3.728 25.549299 0.067574 0.356527  
2002-09-18 11:40:38 51°28.728 3°3.722 25.400184 0.067574 0.356538  
2002-09-18 11:41:38 51°28.729 3°3.715 25.375634 0.067574 0.356555  
2002-09-18 11:42:38 51°28.737 3°3.704 25.687046 0.067574 0.356577  
2002-09-18 11:43:38 51°28.757 3°3.691 25.385508 0.067574 0.356588  
2002-09-18 11:44:38 51°28.788 3°3.689 25.512808 0.067574 0.356593  
2002-09-18 11:45:38 51°28.823 3°3.703 25.271673 0.067574 0.356626  
2002-09-18 11:46:38 51°28.857 3°3.732 25.401047 0.067574 0.356609  
2002-09-18 11:47:38 51°28.888 3°3.776 25.372743 0.067574 0.356626  
2002-09-18 11:48:38 51°28.909 3°3.832 25.410693 0.067574 0.356637  
2002-09-18 11:49:38 51°28.92 3°3.893 25.474573 0.067574 0.356642  
2002-09-18 11:50:38 51°28.893 3°3.939 25.482934 0.067574 0.356664  
2002-09-18 11:51:38 51°28.809 3°3.829 25.357234 0.067574 0.356686  
2002-09-18 11:52:39 51°28.635 3°3.712 25.579445 0.067574 0.356692  
2002-09-18 11:53:38 51°28.443 3°3.586 25.553232 0.067574 0.356708  
2002-09-18 11:54:38 51°28.241 3°3.475 25.496954 0.067574 0.356714  
2002-09-18 11:55:38 51°28.044 3°3.339 25.624697 0.067574 0.356724  
2002-09-18 11:56:38 51°27.846 3°3.199 25.62799 0.067574 0.356779  
2002-09-18 11:57:38 51°27.645 3°3.058 25.450798 0.067574 0.356768  
2002-09-18 11:58:38 51°27.451 3°2.911 25.544654 0.067574 0.356768  
2002-09-18 11:59:38 51°27.255 3°2.77 25.520789 0.067574 0.356779  
2002-09-18 12:00:38 51°27.057 3°2.628 25.434143 0.067574 0.356807  
2002-09-18 12:01:38 51°26.861 3°2.489 25.56031 0.067574 0.356818  
2002-09-18 12:02:38 51°26.662 3°2.347 25.903938 0.067574 0.356845  
2002-09-18 12:03:39 51°26.463 3°2.203 25.632928 0.067574 0.356856  
2002-09-18 12:04:38 51°26.273 3°2.068 25.788889 0.067574 0.356867  
2002-09-18 12:05:38 51°26.076 3°1.93 25.641159 0.067574 0.356878  
2002-09-18 12:06:38 51°25.881 3°1.79 25.520377 0.067574 0.3569  
2002-09-18 12:07:37 51°25.688 3°1.651 25.588131 0.067574 0.356905  
2002-09-18 12:08:39 51°25.485 3°1.501 25.560161 0.067574 0.356933  
2002-09-18 12:09:38 51°25.289 3°1.359 25.685476 0.067574 0.356949  
2002-09-18 12:10:38 51°25.093 3°1.212 25.540272 0.067574 0.356944  
2002-09-18 12:11:39 51°24.889 3°1.07 25.388924 0.067574 0.356966  
2002-09-18 12:12:38 51°24.692 3°0.933 25.545366 0.067574 0.356966  
2002-09-18 12:13:39 51°24.492 3°0.793 25.641982 0.067574 0.356971  
2002-09-18 12:14:38 51°24.3 3°0.658 25.523412 0.067574 0.356971  
2002-09-18 12:15:39 51°24.101 3°0.521 25.526035 0.067574 0.356988  
2002-09-18 12:16:39 51°23.902 3°0.382 25.744299 0.06747 0.356449  
2002-09-18 12:17:39 51°23.701 3°0.25 25.655186 0.06747 0.356465  
2002-09-18 12:18:38 51°23.507 3°0.118 25.657355 0.06747 0.356476  
2002-09-18 12:19:38 51°23.405 3°0.012 25.688541 0.06747 0.356476  
2002-09-18 12:20:38 51°23.38 2°59.94 25.568998 0.06747 0.356493  
2002-09-18 12:21:38 51°23.376 2°59.888 25.849831 0.06747 0.356504  
2002-09-18 12:22:38 51°23.312 2°59.903 25.882128 0.06747 0.356548  
2002-09-18 12:23:39 51°23.223 2°59.993 25.491107 0.06747 0.356542  
2002-09-18 12:24:38 51°23.215 3°0.021 25.771191 0.06747 0.356575  
2002-09-18 12:25:38 51°23.219 3°0.031 25.621928 0.06747 0.356569  
2002-09-18 12:26:38 51°23.221 3°0.029 25.593409 0.06747 0.356564  
2002-09-18 12:27:38 51°23.218 3°0.02 25.655635 0.06747 0.356569  
2002-09-18 12:28:38 51°23.215 3°0.004 25.504563 0.06747 0.356591  
2002-09-18 12:29:38 51°23.215 2°59.981 25.535589 0.06747 0.356597  
2002-09-18 12:30:38 51°23.213 2°59.957 25.598799 0.06747 0.356608  
2002-09-18 12:31:39 51°23.209 2°59.941 25.507374 0.06747 0.356619  
2002-09-18 12:32:39 51°23.205 2°59.935 25.416547 0.06747 0.35663  
2002-09-18 12:33:38 51°23.201 2°59.935 25.603216 0.06747 0.356624  
2002-09-18 12:34:38 51°23.195 2°59.939 25.391176 0.06747 0.356635  
2002-09-18 12:35:38 51°23.191 2°59.934 25.517567 0.06747 0.356641  
2002-09-18 12:36:39 51°23.193 2°59.922 25.580306 0.06747 0.356652  
2002-09-18 12:37:39 51°23.202 2°59.912 25.490319 0.06747 0.356652  
2002-09-18 12:38:39 51°23.217 2°59.903 25.67639 0.06747 0.356652  
2002-09-18 12:39:39 51°23.234 2°59.898 25.586671 0.06747 0.356652  
2002-09-18 12:40:38 51°23.251 2°59.897 25.6174 0.06747 0.356663  
2002-09-18 12:41:37 51°23.268 2°59.898 25.649613 0.06747 0.356668  
2002-09-18 12:42:38 51°23.286 2°59.896 25.743963 0.06747 0.356668  
2002-09-18 12:43:37 51°23.301 2°59.891 25.623649 0.06747 0.356668  
2002-09-18 12:44:38 51°23.314 2°59.887 25.718144 0.06747 0.356668  
2002-09-18 12:45:39 51°23.327 2°59.884 25.62885 0.06747 0.356674  
2002-09-18 12:46:39 51°23.337 2°59.873 25.783177 0.06747 0.356685  
2002-09-18 12:47:38 51°23.335 2°59.859 25.664274 0.06747 0.356679  
2002-09-18 12:48:38 51°23.327 2°59.861 25.574503 0.06747 0.356674  
2002-09-18 12:49:38 51°23.315 2°59.871 25.669547 0.06747 0.356679  
2002-09-18 12:50:38 51°23.299 2°59.885 25.762228 0.06747 0.356674  
2002-09-18 12:51:37 51°23.286 2°59.889 25.733203 0.06747 0.356701  
2002-09-18 12:52:38 51°23.28 2°59.878 25.551659 0.06747 0.356701  
2002-09-18 12:53:39 51°23.285 2°59.859 25.643291 0.06747 0.356696  
2002-09-18 12:54:38 51°23.299 2°59.842 25.64389 0.06747 0.356696  
2002-09-18 12:55:38 51°23.321 2°59.83 25.521276 0.06747 0.356701  
2002-09-18 12:56:38 51°23.347 2°59.827 25.582253 0.06747 0.356707  
2002-09-18 12:57:38 51°23.374 2°59.836 25.552146 0.06747 0.356712  
2002-09-18 12:58:38 51°23.398 2°59.854 25.645461 0.06747 0.356707  
2002-09-18 12:59:38 51°23.437 2°59.888 25.583975 0.06747 0.356718  
2002-09-18 13:00:38 51°23.51 2°59.793 25.611113 0.06747 0.356745  
2002-09-18 13:01:38 51°23.457 2°59.487 25.812182 0.06747 0.356712  
2002-09-18 13:02:38 51°23.367 2°59.172 25.564205 0.06747 0.356751  
2002-09-18 13:03:38 51°23.264 2°58.864 25.718854 0.06747 0.356773  
2002-09-18 13:04:38 51°23.132 2°58.592 25.687308 0.06747 0.356778  
2002-09-18 13:05:38 51°22.945 2°58.405 25.690336 0.06747 0.356773  
2002-09-18 13:06:38 51°22.76 2°58.212 25.721134 0.06747 0.356789  
2002-09-18 13:07:38 51°22.587 2°57.996 25.540197 0.06747 0.356778  
2002-09-18 13:08:38 51°22.418 2°57.772 25.754086 0.06747 0.356822  
2002-09-18 13:09:37 51°22.251 2°57.556 25.631656 0.06747 0.356838  
2002-09-18 13:10:39 51°22.074 2°57.332 25.633452 0.06747 0.356844  
2002-09-18 13:11:39 51°21.902 2°57.111 25.879779 0.06747 0.356855  
2002-09-18 13:12:39 51°21.734 2°56.887 25.697027 0.06747 0.356882  
2002-09-18 13:13:39 51°21.563 2°56.661 25.667864 0.06747 0.356899  
2002-09-18 13:14:39 51°21.391 2°56.445 25.668276 0.06747 0.35691  
2002-09-18 13:15:39 51°21.218 2°56.22 25.758642 0.06747 0.356943  
2002-09-18 13:16:39 51°21.049 2°55.992 25.609878 0.06747 0.356937  
2002-09-18 13:17:39 51°20.907 2°55.722 25.51633 0.06747 0.35697  
2002-09-18 13:18:39 51°20.778 2°55.433 25.824311 0.06747 0.356992  
2002-09-18 13:19:39 51°20.646 2°55.145 25.675044 0.06747 0.356998  
2002-09-18 13:20:39 51°20.485 2°54.906 25.642842 0.06747 0.357031  
2002-09-18 13:21:39 51°20.296 2°54.718 25.861394 0.06747 0.357042  
2002-09-18 13:22:38 51°20.109 2°54.53 25.649015 0.06747 0.357058  
2002-09-18 13:23:38 51°19.924 2°54.329 25.712726 0.06747 0.357069  
2002-09-18 13:24:39 51°19.737 2°54.12 25.590751 0.06747 0.357091  
2002-09-18 13:25:39 51°19.551 2°53.922 25.655411 0.06747 0.357108  
2002-09-18 13:26:39 51°19.367 2°53.727 25.838601 0.067366 0.356557  
2002-09-18 13:27:39 51°19.185 2°53.518 25.869785 0.067366 0.356574  
2002-09-18 13:28:39 51°18.999 2°53.318 25.595431 0.067366 0.35659  
2002-09-18 13:29:39 51°18.803 2°53.139 25.84043 0.067366 0.356601  
2002-09-18 13:30:39 51°18.605 2°52.968 25.690336 0.067366 0.356618  
2002-09-18 13:31:39 51°18.403 2°52.811 25.843787 0.067366 0.356634  
2002-09-18 13:32:39 51°18.194 2°52.685 25.536675 0.067366 0.356656  
2002-09-18 13:33:39 51°17.97 2°52.647 25.602804 0.067366 0.356656  
2002-09-18 13:34:39 51°17.75 2°52.701 25.631806 0.067366 0.356673  
2002-09-18 13:35:39 51°17.542 2°52.845 25.724497 0.067366 0.356706  
2002-09-18 13:36:39 51°17.333 2°52.974 25.633228 0.067366 0.356722  
2002-09-18 13:37:39 51°17.126 2°53.12 25.727486 0.067366 0.356717  
2002-09-18 13:38:39 51°16.915 2°53.223 25.757148 0.067366 0.356733  
2002-09-18 13:39:39 51°16.696 2°53.345 25.666556 0.067366 0.356739  
2002-09-18 13:40:39 51°16.477 2°53.469 25.697588 0.067366 0.356744  
2002-09-18 13:41:39 51°16.259 2°53.594 25.759277 0.067366 0.356755  
2002-09-18 13:42:39 51°16.039 2°53.717 25.698672 0.067366 0.356761  
2002-09-18 13:43:39 51°15.82 2°53.832 25.698149 0.067366 0.356772  
2002-09-18 13:44:39 51°15.599 2°53.945 25.854643 0.067366 0.356766  
2002-09-18 13:45:39 51°15.402 2°54.085 25.76178 0.067366 0.356788  
2002-09-18 13:46:39 51°15.281 2°54.214 25.670632 0.067366 0.356794  
2002-09-18 13:47:39 51°15.205 2°54.306 25.794079 0.067366 0.356794  
2002-09-18 13:48:39 51°15.143 2°54.372 25.673249 0.067366 0.356799  
2002-09-18 13:49:39 51°15.094 2°54.428 25.795273 0.067366 0.356805  
2002-09-18 13:50:39 51°15.052 2°54.479 25.766112 0.067366 0.356816  
2002-09-18 13:51:39 51°15.009 2°54.52 25.888802 0.067366 0.356832  
2002-09-18 13:52:39 51°14.969 2°54.56 25.706671 0.067366 0.356838  
2002-09-18 13:53:39 51°14.878 2°54.632 25.585061 0.067366 0.356849  
2002-09-18 13:54:39 51°14.726 2°54.733 25.831475 0.067366 0.356876  
2002-09-18 13:55:39 51°14.566 2°54.846 25.556603 0.067366 0.356882  
2002-09-18 13:56:39 51°14.423 2°54.987 25.740189 0.067366 0.356898